Tracking 20945 objects as of 9-Jul-2020
HD Live streaming from Space Station
objects crossing your sky now

PSLV DEB

Track PSLV DEB now!
10-day predictions


NORAD ID: 27353
Int'l Code: 2001-049MA
Perigee: 521.1 km
Apogee: 550.9 km
Inclination: 97.7 °
Period: 95.2 minutes
Semi major axis: 6906 km
RCS: 0.0023 m2 (small)
Launch date: October 22, 2001
Source: India (IND)
Launch site: SRIHARIKOTA (SRI)

Note: This is SATELLITE DEBRIS
aabbcc
Your satellite tracking list
Your tracking list is empty




NASA's NSSDC Master Catalog

Two Line Element Set (TLE):
1 27353U 01049MA  20190.76500466  .00000724  00000-0  45392-4 0  9990
2 27353  97.6694 201.3619 0021615 277.4359  82.4416 15.12410367  5625
Source of the keplerian elements: AFSPC